• In Kazakhstan
  • List of Countries
  • For 7 days
  • Water Temperature
  • Weather Map
  • News
  • Weather Widgets
  • user-avatar
    Login

    Hourly Weather Crete

    Today, 23 September, Monday

    Time Temperature Precipitation Wind Pressure Humidity
    00:00 +13°C° 0 mm 3 mps 710 mmHg 58%
    01:00 +13°C° 0 mm 3 mps 710 mmHg 57%
    02:00 +14°C° 0 mm 2 mps 710 mmHg 57%
    03:00 +14°C° 0 mm 2 mps 710 mmHg 56%
    04:00 +14°C° 0 mm 2 mps 710 mmHg 55%
    05:00 +14°C° 0 mm 2 mps 709 mmHg 55%
    06:00 +15°C° 0 mm 2 mps 710 mmHg 51%
    07:00 +17°C° 0 mm 2 mps 710 mmHg 48%
    08:00 +19°C° 0 mm 2 mps 710 mmHg 46%
    09:00 +20°C° 0 mm 2 mps 711 mmHg 41%
    10:00 +23°C° 0 mm 2 mps 711 mmHg 37%
    11:00 +25°C° 0 mm 2 mps 711 mmHg 32%
    12:00 +25°C° 0 mm 2 mps 711 mmHg 32%
    13:00 +26°C° 0 mm 2 mps 711 mmHg 32%
    14:00 +26°C° 0 mm 3 mps 711 mmHg 33%
    15:00 +25°C° 0 mm 2 mps 710 mmHg 36%
    16:00 +24°C° 0 mm 2 mps 710 mmHg 39%
    17:00 +23°C° 0 mm 2 mps 709 mmHg 42%
    18:00 +21°C° 0 mm 2 mps 709 mmHg 48%
    19:00 +19°C° 0 mm 2 mps 709 mmHg 54%
    20:00 +18°C° 0 mm 2 mps 709 mmHg 60%
    21:00 +19°C° 0 mm 1 mps 709 mmHg 58%
    22:00 +19°C° 0 mm 1 mps 709 mmHg 57%
    23:00 +19°C° 0 mm 1 mps 708 mmHg 56%

    Tomorrow, 24 September, Tuesday

    Time Temperature Precipitation Wind Pressure Humidity
    00:00 +19°C° 0 mm 1 mps 708 mmHg 55%
    01:00 +19°C° 0 mm 1 mps 708 mmHg 54%
    02:00 +19°C° 0 mm 1 mps 708 mmHg 52%
    03:00 +19°C° 0 mm 1 mps 708 mmHg 54%
    04:00 +19°C° 0 mm 1 mps 708 mmHg 55%
    05:00 +19°C° 0 mm 1 mps 707 mmHg 57%
    06:00 +21°C° 0 mm 1 mps 708 mmHg 52%
    07:00 +23°C° 0 mm 1 mps 708 mmHg 47%
    08:00 +25°C° 0 mm 1 mps 708 mmHg 43%
    09:00 +26°C° 0 mm 2 mps 708 mmHg 40%
    10:00 +28°C° 0 mm 3 mps 708 mmHg 38%
    11:00 +30°C° 0 mm 3 mps 708 mmHg 36%
    12:00 +29°C° 0 mm 4 mps 708 mmHg 40%
    13:00 +29°C° 0 mm 4 mps 708 mmHg 44%
    14:00 +28°C° 0 mm 5 mps 708 mmHg 48%
    15:00 +27°C° 0 mm 4 mps 707 mmHg 56%
    16:00 +26°C° 0 mm 4 mps 707 mmHg 64%
    17:00 +23°C° 0 mm 4 mps 706 mmHg 72%
    18:00 +23°C° 0 mm 4 mps 706 mmHg 76%
    19:00 +22°C° 0 mm 4 mps 706 mmHg 80%
    20:00 +21°C° 0 mm 4 mps 705 mmHg 84%
    21:00 +21°C° 0 mm 4 mps 705 mmHg 86%
    22:00 +21°C° 0 mm 4 mps 705 mmHg 88%
    23:00 +21°C° 0 mm 4 mps 705 mmHg 90%

    Day after tomorrow, 25 September, Wednesday

    Time Temperature Precipitation Wind Pressure Humidity
    00:00 +20°C° 0.1 mm 4 mps 705 mmHg 91%
    01:00 +20°C° 0.1 mm 3 mps 704 mmHg 92%
    02:00 +20°C° 0.1 mm 3 mps 704 mmHg 94%
    03:00 +19°C° 0.1 mm 3 mps 704 mmHg 93%
    04:00 +19°C° 0.1 mm 3 mps 704 mmHg 92%
    05:00 +19°C° 0.1 mm 3 mps 704 mmHg 91%
    06:00 +20°C° 0 mm 3 mps 704 mmHg 84%
    07:00 +20°C° 0 mm 3 mps 704 mmHg 77%
    08:00 +21°C° 0 mm 3 mps 705 mmHg 70%
    09:00 +22°C° 0 mm 3 mps 705 mmHg 66%
    10:00 +23°C° 0 mm 4 mps 706 mmHg 62%
    11:00 +25°C° 0 mm 4 mps 706 mmHg 58%
    12:00 +25°C° 0 mm 4 mps 706 mmHg 59%
    13:00 +25°C° 0 mm 4 mps 706 mmHg 60%
    14:00 +23°C° 0 mm 4 mps 706 mmHg 62%
    15:00 +23°C° 0 mm 4 mps 706 mmHg 63%
    16:00 +22°C° 0 mm 4 mps 706 mmHg 65%
    17:00 +22°C° 0 mm 4 mps 706 mmHg 67%
    18:00 +20°C° 0 mm 3 mps 706 mmHg 73%
    19:00 +19°C° 0 mm 3 mps 706 mmHg 80%
    20:00 +18°C° 0 mm 3 mps 706 mmHg 86%
    21:00 +18°C° 0 mm 2 mps 707 mmHg 85%
    22:00 +18°C° 0 mm 2 mps 707 mmHg 85%
    23:00 +17°C° 0 mm 2 mps 707 mmHg 84%

    26 September, Thursday

    Time Temperature Precipitation Wind Pressure Humidity
    00:00 +17°C° 0 mm 2 mps 707 mmHg 82%
    01:00 +18°C° 0 mm 1 mps 707 mmHg 80%
    02:00 +18°C° 0 mm 1 mps 706 mmHg 78%
    03:00 +18°C° 0 mm 1 mps 706 mmHg 77%
    04:00 +16°C° 0 mm 1 mps 707 mmHg 77%
    05:00 +16°C° 0 mm 1 mps 707 mmHg 77%
    06:00 +19°C° 0 mm 1 mps 707 mmHg 70%
    07:00 +20°C° 0 mm 1 mps 707 mmHg 63%
    08:00 +20°C° 0 mm 0 mps 708 mmHg 56%
    09:00 +23°C° 0 mm 1 mps 708 mmHg 52%
    10:00 +25°C° 0 mm 1 mps 709 mmHg 48%
    11:00 +26°C° 0 mm 2 mps 709 mmHg 44%
    12:00 +26°C° 0 mm 2 mps 709 mmHg 46%
    13:00 +26°C° 0 mm 2 mps 709 mmHg 48%
    14:00 +26°C° 0 mm 2 mps 708 mmHg 50%
    15:00 +25°C° 0 mm 3 mps 708 mmHg 55%
    16:00 +24°C° 0 mm 3 mps 708 mmHg 61%
    17:00 +22°C° 0 mm 3 mps 708 mmHg 66%
    18:00 +21°C° 0 mm 2 mps 708 mmHg 73%
    19:00 +20°C° 0 mm 2 mps 707 mmHg 80%
    20:00 +20°C° 0 mm 1 mps 707 mmHg 87%
    21:00 +19°C° 0 mm 1 mps 708 mmHg 86%
    22:00 +19°C° 0 mm 1 mps 708 mmHg 84%
    23:00 +19°C° 0 mm 1 mps 708 mmHg 82%

    27 September, Friday

    Time Temperature Precipitation Wind Pressure Humidity
    00:00 +19°C° 0 mm 1 mps 707 mmHg 79%
    01:00 +19°C° 0 mm 1 mps 707 mmHg 77%
    02:00 +19°C° 0 mm 1 mps 707 mmHg 74%
    03:00 +18°C° 0 mm 1 mps 707 mmHg 74%
    04:00 +18°C° 0 mm 1 mps 707 mmHg 75%
    05:00 +18°C° 0 mm 1 mps 707 mmHg 75%
    06:00 +20°C° 0 mm 1 mps 707 mmHg 69%
    07:00 +21°C° 0 mm 1 mps 707 mmHg 63%
    08:00 +23°C° 0 mm 1 mps 708 mmHg 58%
    09:00 +24°C° 0 mm 2 mps 708 mmHg 54%
    10:00 +25°C° 0 mm 2 mps 709 mmHg 50%
    11:00 +27°C° 0 mm 3 mps 709 mmHg 46%
    12:00 +27°C° 0 mm 3 mps 709 mmHg 48%
    13:00 +27°C° 0 mm 3 mps 709 mmHg 50%
    14:00 +27°C° 0 mm 3 mps 709 mmHg 52%
    15:00 +26°C° 0 mm 2 mps 708 mmHg 56%
    16:00 +25°C° 0 mm 2 mps 708 mmHg 60%
    17:00 +24°C° 0 mm 2 mps 708 mmHg 64%
    18:00 +23°C° 0 mm 2 mps 708 mmHg 71%
    19:00 +21°C° 0 mm 1 mps 708 mmHg 78%
    20:00 +20°C° 0 mm 1 mps 708 mmHg 86%
    21:00 +20°C° 0 mm 1 mps 709 mmHg 84%
    22:00 +19°C° 0 mm 1 mps 709 mmHg 83%
    23:00 +19°C° 0 mm 1 mps 709 mmHg 82%

    28 September, Saturday

    Time Temperature Precipitation Wind Pressure Humidity
    00:00 +18°C° 0 mm 2 mps 709 mmHg 82%
    01:00 +17°C° 0 mm 2 mps 709 mmHg 82%
    02:00 +17°C° 0 mm 2 mps 709 mmHg 82%
    03:00 +17°C° 0 mm 2 mps 709 mmHg 84%
    04:00 +17°C° 0 mm 2 mps 709 mmHg 85%
    05:00 +17°C° 0 mm 2 mps 709 mmHg 87%
    06:00 +18°C° 0 mm 2 mps 709 mmHg 79%
    07:00 +19°C° 0 mm 2 mps 709 mmHg 72%
    08:00 +20°C° 0 mm 3 mps 709 mmHg 64%
    09:00 +22°C° 0 mm 3 mps 710 mmHg 59%
    10:00 +24°C° 0 mm 3 mps 710 mmHg 53%
    11:00 +25°C° 0 mm 4 mps 711 mmHg 47%
    12:00 +25°C° 0 mm 4 mps 710 mmHg 47%
    13:00 +25°C° 0 mm 4 mps 710 mmHg 46%
    14:00 +25°C° 0 mm 4 mps 710 mmHg 45%
    15:00 +23°C° 0 mm 4 mps 710 mmHg 48%
    16:00 +22°C° 0 mm 4 mps 709 mmHg 50%
    17:00 +21°C° 0 mm 4 mps 709 mmHg 52%
    18:00 +20°C° 0 mm 4 mps 709 mmHg 57%
    19:00 +19°C° 0 mm 4 mps 709 mmHg 62%
    20:00 +17°C° 0 mm 3 mps 709 mmHg 66%
    21:00 +17°C° 0 mm 3 mps 709 mmHg 63%
    22:00 +17°C° 0 mm 3 mps 709 mmHg 60%
    23:00 +17°C° 0 mm 3 mps 709 mmHg 57%
    Show more